[[{"header":{"parameterUnit":"m.s-1","parameterCategory":1,"la1":30.2991,"la2":30.254,"lo1":-89.0895,"lo2":-89.0444,"dx":0.0017,"dy":0.0017,"nx":28,"ny":28,"refTime":"2022-12-13T09:00:00:Z","depth":0,"parameterNumber":2,"parameterNumberName":"U-component_of_WINDS"},"data":[0,0,0,0,0,0,0,0,0,0,0,0,0,0,0,0,0,0,0,0,0,0,0,0,0,0,0,0,0,0,0,0,0,0,0,0,0,0,0,0,0,0,0,0,0,0,0,0,0,0,0,0,0,0,0,0,0,0,-5.4868,-5.4869,0,-5.4954,-5.4955,-5.4956,-5.4943,-5.4941,-5.494,-5.4938,-5.5025,-5.5029,-5.5032,0,0,0,0,0,0,0,0,0,0,0,0,0,-5.4689,-5.4692,-5.4868,-5.4869,-5.487,-5.4954,-5.4956,-5.4957,-5.4943,-5.4941,-5.4939,-5.4938,-5.5024,-5.5028,-5.5033,0,0,0,0,0,0,0,0,0,0,0,0,0,-5.477,-5.4693,-5.4867,-5.4873,-5.4875,-5.4954,-5.4956,-5.4957,-5.4943,-5.4941,-5.4939,-5.4937,-5.5023,-5.5028,-5.5033,-5.5112,0,0,-5.505,-5.5053,0,0,0,0,0,0,0,0,-5.4766,-5.4777,-5.4871,-5.4873,-5.4875,-5.4936,-5.4924,-5.5009,-5.4944,-5.4917,-5.4938,-5.4936,-5.4997,-5.5004,-5.5026,-5.5116,-5.512,-5.5051,-5.5054,-5.5056,-5.5058,0,0,0,0,0,0,0,-5.476,-5.4773,-5.4902,-5.4873,-5.4875,-5.4871,-5.488,-5.494,-5.4968,-5.4919,-5.4919,-5.4929,-5.4997,-5.502,-5.5027,-5.5121,-5.5051,-5.5055,-5.5059,-5.5061,-5.528,-5.5282,0,0,0,0,0,0,-5.4753,-5.4768,-5.4899,-5.4905,-5.4814,-5.4876,-5.4886,-5.4918,-5.4968,-5.4973,-5.4931,-5.4928,-5.5012,-5.5021,-5.503,-5.5124,-5.5056,-5.5062,-5.5065,-5.5277,-5.528,-5.5283,0,0,0,0,0,0,-5.4749,-5.4765,-5.4896,-5.4836,-5.4853,-5.4882,-5.4918,-5.4921,-5.4944,-5.4977,-5.4981,-5.4949,-5.5011,-5.5023,-5.5092,-5.5127,-5.5064,-5.5069,-5.5274,-5.5278,-5.5282,-5.5314,0,0,0,0,0,0,-5.4744,-5.4763,-5.4794,-5.4837,-5.4856,-5.4956,-5.492,-5.4924,-5.4954,-5.4951,-5.4995,-5.5,-5.501,-5.5084,-5.5097,-5.5134,-5.5073,-5.5271,-5.5276,-5.528,-5.531,-5.5318,-5.5326,0,0,0,0,0,-5.4738,-5.4799,-5.4795,-5.4811,-5.4894,-5.4958,-5.4968,-5.4979,-5.4957,-5.4987,-5.5008,-5.4998,-5.5122,-5.5091,-5.5106,-5.5145,-5.5269,-5.5275,-5.528,-5.5306,-5.5316,-5.5325,0,0,0,0,0,0,-5.4757,-5.4804,-5.4801,-5.4878,-5.4914,-5.4955,-5.4994,-5.499,-5.5032,-5.5028,-5.5039,-5.5049,-5.5119,-5.5139,-5.5104,-5.5223,-5.5192,-5.5201,-5.5207,-5.5217,-5.5225,-5.5217,-5.5078,0,0,0,0,0,-5.4771,-5.4819,-5.4858,-5.4922,-5.4941,-5.4964,-5.4992,-5.4998,-5.5035,-5.505,-5.5076,-5.5112,-5.5159,-5.519,-5.5235,-5.5314,-5.5322,-5.5348,-5.5356,-5.5363,-5.5369,-5.5411,-5.5423,-5.5301,-5.5301,-5.5301,0,0,-5.4799,-5.4831,-5.486,-5.4927,-5.4955,-5.5004,-5.4977,-5.503,-5.5066,-5.5058,-5.5124,-5.5145,-5.5187,-5.5261,-5.5295,-5.528,-5.5405,-5.537,-5.5375,-5.5378,-5.5418,-5.543,-5.544,-5.5305,-5.5305,-5.5304,0,0,-5.4874,-5.4904,-5.496,-5.499,-5.5034,-5.505,-5.5064,-5.5106,-5.512,-5.5187,-5.5182,-5.5226,-5.5306,-5.5336,-5.5361,-5.545,-5.5442,-5.5465,-5.5505,-5.5546,-5.5556,-5.5564,-5.5594,-5.5605,-5.5472,-5.5472,-5.5472,0,-5.4902,-5.4976,-5.4989,-5.5043,-5.5072,-5.5069,-5.5126,-5.5154,-5.521,-5.523,-5.5214,-5.5315,-5.5343,-5.5423,-5.5445,-5.5467,-5.5482,-5.5458,-5.5554,-5.5562,-5.557,-5.5599,-5.561,-5.5475,-5.5474,-5.5474,-5.5474,0,-5.5009,-5.506,-5.5101,-5.5156,-5.519,-5.5245,-5.5266,-5.5299,-5.5302,-5.532,-5.5388,-5.5422,-5.5474,-5.5494,-5.5498,-5.5575,-5.5565,-5.5551,-5.5519,-5.5584,-5.5611,-5.5622,-5.5478,-5.5477,-5.5476,-5.5476,0,0,-5.5095,-5.5159,-5.5173,-5.5198,-5.5248,-5.5287,-5.5343,-5.5394,-5.5421,-5.5462,-5.5507,-5.5577,-5.5565,-5.5594,-5.5601,-5.5638,-5.5704,-5.562,-5.5621,-5.5632,-5.579,-5.5798,-5.5811,-5.5701,-5.5703,-5.5705,-5.5786,0,-5.5173,-5.527,-5.5285,-5.537,-5.5418,-5.5417,-5.5465,-5.55,-5.5519,-5.5562,-5.5582,-5.5631,-5.5612,-5.563,-5.5666,-5.5688,-5.5736,-5.5683,-5.5742,-5.5744,-5.5728,-5.5825,-5.5833,-5.5908,-5.5797,-5.5799,-5.58,0,-5.5276,-5.5319,-5.541,-5.5454,-5.5474,-5.5517,-5.5565,-5.5607,-5.5647,-5.5658,-5.5692,-5.5695,-5.5752,-5.5721,-5.5799,-5.5763,-5.5789,-5.5803,-5.5807,-5.581,-5.5773,-5.5828,-5.5932,-5.5942,-5.5817,-5.5816,-5.5815,0,-5.5327,-5.5408,-5.5473,-5.5495,-5.5548,-5.5578,-5.5601,-5.564,-5.567,-5.5713,-5.5733,-5.5782,-5.5808,-5.5845,-5.5861,-5.5838,-5.5938,-5.5908,-5.5947,-5.5947,-5.5965,-5.5963,-5.6072,-5.5987,-5.5987,-5.5987,-5.5986,0,-5.541,-5.5465,-5.5497,-5.5536,-5.5598,-5.5614,-5.5675,-5.5697,-5.5732,-5.5775,-5.5779,-5.5819,-5.584,-5.5883,-5.5897,-5.5959,-5.5971,-5.5981,-5.5983,-5.5978,-5.5977,-5.5993,-5.5987,-5.599,-5.5989,-5.5988,-5.5988,0,-5.5476,-5.5499,-5.5569,-5.5615,-5.5628,-5.5671,-5.571,-5.5748,-5.5767,-5.5822,-5.5836,-5.5867,-5.5918,-5.5939,-5.6003,-5.6012,-5.6082,-5.6082,-5.6068,-5.6068,-5.6105,-5.61,-5.6225,-5.6241,-5.6148,-5.6149,-5.615,0,-5.5526,-5.5568,-5.5619,-5.5649,-5.5673,-5.5721,-5.5752,-5.5771,-5.5804,-5.5854,-5.5886,-5.5938,-5.598,-5.6063,-5.609,-5.6139,-5.6138,-5.6179,-5.6145,-5.6139,-5.6136,-5.6132,-5.6135,-5.6183,-5.6184,-5.6185,-5.6186,0,-5.5612,-5.5622,-5.5667,-5.5717,-5.5754,-5.5794,-5.5833,-5.5857,-5.5882,-5.5918,-5.5971,-5.6005,-5.607,-5.6121,-5.6172,-5.6195,-5.6194,-5.6197,-5.6208,-5.6202,-5.6191,-5.6195,-5.6082,-5.6193,-5.6192,-5.6192,-5.6191,-5.6191,-5.5669,-5.5707,-5.5748,-5.5798,-5.583,-5.5867,-5.5905,-5.593,-5.5975,-5.603,-5.6039,-5.6096,-5.6136,-5.6204,-5.623,-5.6275,-5.6264,-5.628,-5.6284,-5.6287,-5.6288,-5.6187,-5.6284,-5.6284,-5.6284,-5.6284,-5.6284,0,-5.5753,-5.578,-5.5827,-5.5881,-5.5921,-5.5919,-5.5963,-5.5995,-5.6045,-5.6084,-5.6126,-5.6187,-5.6238,-5.627,-5.6321,-5.635,-5.6351,-5.6362,-5.6358,-5.6364,-5.6296,-5.628,-5.6361,-5.6361,-5.6361,-5.6361,-5.6361,-5.6361,-5.5801,-5.5863,-5.5879,-5.5957,-5.5985,-5.604,-5.6065,-5.6099,-5.613,-5.6198,-5.624,-5.6262,-5.6298,-5.6351,-5.6397,-5.6405,-5.6422,-5.6434,-5.6441,-5.6377,-5.6369,-5.6361,-5.6346,-5.6439,-5.6439,-5.6505,-5.6506,-5.6506]},{"header":{"parameterUnit":"m.s-1","parameterCategory":1,"la1":30.2991,"la2":30.254,"lo1":-89.0895,"lo2":-89.0444,"dx":0.0017,"dy":0.0017,"nx":28,"ny":28,"refTime":"2022-12-13T09:00:00:Z","depth":0,"parameterNumber":3,"parameterNumberName":"V-component_of_WINDS"},"data":[0,0,0,0,0,0,0,0,0,0,0,0,0,0,0,0,0,0,0,0,0,0,0,0,0,0,0,0,0,0,0,0,0,0,0,0,0,0,0,0,0,0,0,0,0,0,0,0,0,0,0,0,0,0,0,0,0,0,2.3864,2.3864,0,2.3927,2.3928,2.3928,2.3963,2.3963,2.3963,2.3963,2.4031,2.4033,2.4034,0,0,0,0,0,0,0,0,0,0,0,0,0,2.3777,2.3779,2.3864,2.3864,2.3865,2.3927,2.3928,2.3928,2.3963,2.3963,2.3963,2.3963,2.403,2.4032,2.4035,0,0,0,0,0,0,0,0,0,0,0,0,0,2.3825,2.3779,2.3863,2.389,2.3893,2.3927,2.3928,2.3929,2.3963,2.3963,2.3963,2.3963,2.403,2.4032,2.4035,2.4048,0,0,2.4043,2.4044,0,0,0,0,0,0,0,0,2.3822,2.3828,2.3885,2.3888,2.3891,2.3937,2.3922,2.3969,2.3963,2.3936,2.3963,2.3963,2.4,2.4005,2.4017,2.4052,2.4055,2.4043,2.4045,2.4046,2.4046,0,0,0,0,0,0,0,2.3819,2.3826,2.3889,2.3886,2.389,2.39,2.3907,2.3931,2.3967,2.3939,2.3941,2.3948,2.4002,2.4014,2.4018,2.4056,2.4043,2.4045,2.4047,2.4048,2.4108,2.4108,0,0,0,0,0,0,2.3811,2.3823,2.3887,2.3891,2.3856,2.3901,2.3909,2.3922,2.3967,2.3973,2.3948,2.395,2.401,2.4015,2.4021,2.4041,2.4046,2.4048,2.405,2.4108,2.4108,2.4108,0,0,0,0,0,0,2.3809,2.3816,2.3884,2.3857,2.3867,2.3903,2.3917,2.3923,2.3936,2.3974,2.398,2.3954,2.401,2.4017,2.4042,2.4044,2.4049,2.4052,2.4108,2.4108,2.4108,2.4081,0,0,0,0,0,0,2.3806,2.3815,2.382,2.3857,2.3868,2.3902,2.3917,2.3925,2.394,2.3942,2.3981,2.3987,2.4011,2.4038,2.4044,2.4048,2.4054,2.4108,2.4108,2.4108,2.4082,2.408,2.4079,0,0,0,0,0,2.3803,2.381,2.382,2.3827,2.3874,2.3902,2.3909,2.3934,2.394,2.3945,2.397,2.3986,2.4043,2.404,2.4048,2.4052,2.4108,2.4108,2.4108,2.4083,2.4081,2.4079,0,0,0,0,0,0,2.3772,2.3815,2.3826,2.3845,2.387,2.3908,2.3916,2.3931,2.3955,2.3957,2.3989,2.3997,2.4019,2.4038,2.4034,2.4069,2.4077,2.4079,2.4055,2.4054,2.4052,2.4047,2.4056,0,0,0,0,0,2.3767,2.3785,2.3822,2.3836,2.3847,2.3879,2.3893,2.391,2.3937,2.3948,2.3975,2.4001,2.4026,2.4041,2.4065,2.4085,2.4095,2.4092,2.4091,2.4089,2.409,2.4105,2.4104,2.4108,2.4108,2.4108,0,0,2.3757,2.3783,2.3793,2.383,2.3851,2.3871,2.3888,2.3907,2.3923,2.3952,2.3976,2.3997,2.4029,2.4052,2.4063,2.4069,2.4092,2.4089,2.4088,2.409,2.4105,2.4104,2.4104,2.4108,2.4108,2.4108,0,0,2.375,2.3771,2.3785,2.3806,2.3838,2.3859,2.3863,2.3899,2.3914,2.3939,2.3962,2.3981,2.4021,2.4044,2.4061,2.4065,2.4081,2.4072,2.4064,2.4077,2.4077,2.4077,2.408,2.408,2.4073,2.4073,2.4073,0,2.3735,2.3764,2.379,2.3809,2.3826,2.3852,2.3868,2.3888,2.3926,2.3938,2.3943,2.3995,2.4019,2.4048,2.4049,2.4061,2.4068,2.4068,2.4075,2.4075,2.4075,2.4078,2.4079,2.4072,2.4072,2.4072,2.4072,0,2.3744,2.3764,2.3772,2.3808,2.3825,2.3842,2.3873,2.3888,2.3905,2.3927,2.3953,2.3983,2.4014,2.4023,2.4039,2.4055,2.4058,2.4068,2.4077,2.4073,2.4077,2.4078,2.407,2.407,2.4071,2.4071,0,0,2.3718,2.3769,2.3772,2.3789,2.3827,2.3844,2.3864,2.3894,2.3907,2.3933,2.3951,2.3986,2.3996,2.4015,2.4035,2.4047,2.405,2.4057,2.4058,2.4055,2.4072,2.4064,2.4065,2.4062,2.4062,2.4062,2.407,0,2.3717,2.3751,2.3777,2.3802,2.3823,2.3849,2.3867,2.3893,2.3914,2.3936,2.396,2.3984,2.3996,2.4008,2.4021,2.4047,2.4054,2.4047,2.4081,2.4081,2.4072,2.4067,2.4058,2.4064,2.4071,2.4072,2.4072,0,2.372,2.3745,2.3772,2.381,2.3819,2.3834,2.3865,2.3885,2.3916,2.3931,2.3953,2.3974,2.3997,2.4004,2.4039,2.4033,2.4049,2.4064,2.4065,2.407,2.4076,2.4072,2.4066,2.4067,2.4074,2.4074,2.4074,0,2.3699,2.374,2.3762,2.3776,2.382,2.3831,2.385,2.3881,2.3898,2.3926,2.3938,2.3968,2.3985,2.4008,2.4038,2.404,2.407,2.4079,2.4084,2.4084,2.409,2.4089,2.4087,2.4098,2.4098,2.4098,2.4098,0,2.3696,2.3712,2.3754,2.3767,2.3787,2.3817,2.3837,2.3858,2.3886,2.3906,2.3931,2.395,2.3987,2.401,2.4033,2.406,2.4067,2.4081,2.4087,2.4079,2.4077,2.409,2.4091,2.4099,2.4099,2.4098,2.4098,0,2.3676,2.3705,2.3731,2.3771,2.3782,2.3794,2.383,2.3845,2.3868,2.3893,2.3901,2.3938,2.3967,2.3998,2.4038,2.4054,2.408,2.4088,2.4069,2.4072,2.4077,2.4076,2.4083,2.4086,2.4094,2.4094,2.4094,0,2.3672,2.3685,2.3727,2.3742,2.376,2.3783,2.3801,2.3832,2.385,2.3888,2.3899,2.393,2.3957,2.4003,2.4034,2.4065,2.4075,2.4076,2.408,2.4072,2.4077,2.4076,2.4078,2.4074,2.4074,2.4074,2.4073,0,2.3663,2.3677,2.3701,2.373,2.3751,2.3776,2.3802,2.3813,2.385,2.3869,2.3899,2.3919,2.3961,2.3992,2.4027,2.4049,2.4068,2.4072,2.4075,2.4067,2.4056,2.4064,2.4066,2.4072,2.4072,2.4072,2.4072,2.4072,2.3652,2.3665,2.3697,2.3724,2.3747,2.3771,2.3788,2.3814,2.3839,2.3874,2.3891,2.3922,2.3955,2.4005,2.4026,2.4052,2.4057,2.4062,2.4063,2.4064,2.4062,2.4052,2.4058,2.4058,2.4059,2.4059,2.4059,0,2.3645,2.3667,2.3691,2.3727,2.3748,2.3764,2.3794,2.3812,2.3837,2.3867,2.3892,2.3928,2.3959,2.3993,2.4027,2.4041,2.4051,2.4049,2.4048,2.4053,2.4055,2.4049,2.404,2.404,2.404,2.404,2.404,2.404,2.3643,2.3668,2.3686,2.3723,2.3745,2.3774,2.3791,2.3814,2.3838,2.3876,2.3901,2.3923,2.3956,2.3992,2.4022,2.4031,2.4043,2.4039,2.4051,2.4052,2.4053,2.4054,2.4049,2.4041,2.4041,2.4048,2.4048,2.4048]}]]